Overview Statistics Trail Chart Weather Telemetry Raw packets
 

This is the latest recevied weather packets stored in our database for station/object EA7URS-13. If no packets are shown the sender has not sent any weather packets the latest 10 day(s).

<< 76 77 78 79 80 81 82 >>
Time Temp. Humidity Pressure Rain* Wind** Luminosity Snow
1788109139 33.89° C 25% 1008.2 hPa 0 mm - 149 W/m² -
1788108838 33.89° C 25% 1008.2 hPa 0 mm - 149 W/m² -
1788108537 33.89° C 26% 1008 hPa 0 mm - 182 W/m² -
1788108236 33.89° C 26% 1008 hPa 0 mm - 182 W/m² -
1788107935 34.44° C 27% 1008.1 hPa 0 mm - 210 W/m² -
1788107634 34.44° C 27% 1008.1 hPa 0 mm - 210 W/m² -
1788107332 35° C 28% 1007.9 hPa 0 mm - 234 W/m² -
1788107031 35° C 28% 1007.9 hPa 0 mm - 234 W/m² -
1788106730 35° C 25% 1008.1 hPa 0 mm - 261 W/m² -
1788106429 35° C 25% 1008.1 hPa 0 mm - 261 W/m² -
1788106128 35.56° C 24% 1008.1 hPa 0 mm - 284 W/m² -
1788105827 35.56° C 24% 1008.1 hPa 0 mm - 284 W/m² -
1788105526 35.56° C 22% 1008.1 hPa 0 mm - 313 W/m² -
1788105225 35.56° C 22% 1008.1 hPa 0 mm - 313 W/m² -
1788104924 36.11° C 22% 1008.1 hPa 0 mm - 341 W/m² -
1788104623 36.11° C 22% 1008.1 hPa 0 mm - 341 W/m² -
1788104322 35° C 23% 1008.4 hPa 0 mm - 368 W/m² -
1788104021 35° C 23% 1008.4 hPa 0 mm - 368 W/m² -
1788103720 34.44° C 24% 1008.3 hPa 0 mm - 393 W/m² -
1788103419 34.44° C 24% 1008.3 hPa 0 mm - 393 W/m² -
1788103117 34.44° C 23% 1008.5 hPa 0 mm - 421 W/m² -
1788102816 34.44° C 23% 1008.5 hPa 0 mm - 421 W/m² -
1788102515 34.44° C 23% 1008.4 hPa 0 mm - 447 W/m² -
1788102214 34.44° C 23% 1008.4 hPa 0 mm - 447 W/m² -
1788101913 34.44° C 22% 1008.7 hPa 0 mm - 475 W/m² -

* Rain latest hour (hover to see other rain measurements)
** Current wind speed in m/s (hover to see current wind gust speed)